Back to catalog

FENGYUN 1C DEB

LostSSO
NORAD 31662·DEBRIS·🇨🇳 China

Launched May 10, 1999 from Taiyuan Satellite Launch Center

Loading…

Next Passes (next 24 hours)

TLE

StaleSource: Space-Track

Epoch: Aug 9, 2010, 17:31 UTC

1 31662U 99025CBU 10221.73015106 -.00000041  00000-0  15524-5 0  9990
2 31662  98.9687 199.0028 0048105  56.7627 302.2132 14.03367415171755

Track FENGYUN 1C DEB in real time with AllMySat

Download on the App Store